COSMOS 1431

Satellite information

Favourite Embed

Satellite Type and Status

PAYLOADIN ORBIT

Key statistics

Satellite COSMOS 1431 at a glance.

Uptime

15625

Days in orbit

Revolutions

≈ 12.5

Per day

Orbit

LEO

Low Earth Orbit

Inclination

74.0

Latest

Satellite identification and parameters

Extended collection of information and parameters for COSMOS 1431.

Object identification

Identified? True

Debris? False

Object name: COSMOS 1431

International designator: 1983-002C

Object number (NORAD): 13763

Object ID (CCSDS): 13763

Country: COMMONWEALTH OF INDEPENDENT STATES (CIS)

Current information (Y/N): Y

RCS size: MEDIUM

Orbital parameters

Period: 115.408 minutes

Inclination: 74.0274 deg

SMA: 7852.075 km

Apoapsis: 1483.638 km

Periapsis: 1464.242 km

RAAN: 4.8629 deg

Eccentricy: 0.00123511

Argument of periapsis: 265.345 deg

Mean anomaly: 248.0261 deg

Mean motion: 12.47745844 rev/day

Mean motion (dot): -0.00000002 rev/day2

B* drag term: 0.000093082306 1/REarth

Two-line elements (TLE)

Creation date: Oct. 28, 2025, 7:11 p.m.

Reference frame: TEME

Reference center: EARTH

Epoch: Oct. 28, 2025, 3:13 p.m. UTC

TLE line 0: 0 COSMOS 1431

TLE line 1: 1 13763U 83002C 25301.63461377 -.00000002 00000-0 93082-4 0 9990

TLE line 2: 2 13763 74.0274 4.8629 0012351 265.3450 248.0261 12.47745844948305

Live tracking on map

Real-time ground track for satellite COSMOS 1431.

In-orbit conjunctions

There are no conjunctions computed for COSMOS 1431, at the moment. Check back to stay up to date, as we update our databases every day.

Go to all conjunctions

Associated space launch

Military communications satellites

COSMOS 1431 was lifted into orbit during the mission ‘Kosmos-3M | Strela-1M 257-264’, on board a Kosmos-3M space rocket.

The launch took place on Jan. 19, 1983, 2:25 a.m. from 132/1 (132L).

For more information about the launch, click the button.

Launch to space Kosmos-3M | Strela-1M 257-264
Kosmos-3M | Strela-1M 257-264

Agency: N/A

Status: Launch Successful

Launch date: Jan. 19, 1983, 2:25 a.m. UTC

Rocket: Kosmos-3M

Launch pad: 132/1 (132L)

Location: Plesetsk Cosmodrome, Russian Federation

...

Latest news about this satellite

There are no fresh news available about this satellite. Check back as we update our databases every day.


Newsletter sign-up

Weekly statistics, charts and insights to help you stay on top of the space industry.